Volver al catálogo

STARLINK-32414

ActivoComunicacionesVLEO
NORAD 61667·PAYLOAD·🇺🇸 United States

Lanzado Oct 26, 2024 desde Cape Canaveral Space Force Station

Loading…

Próximos Pases (próximas 24 horas)

TLE

ActualizadoSource: CelesTrak SupGP

Época: Sep 14, 2026, 21:24 UTC

1 61667C 24193G   26257.89215278  .00029343  00000+0  86737-3 0  2570
2 61667  53.1586 291.6977 0001132  82.5467 190.4222 15.34360253    19

Sigue STARLINK-32414 en tiempo real con AllMySat

Download on the App Store